Regional Weather Roundup
Issued by NWS Goodland, KS

Home | Current Version | Previous Version | Graphics & Text | Print | Product List | Glossary On
Versions: 1 2 3 4 5 6 7 8 9 10 11 12 13 14 15 16 17 18 19 20 21 22 23 24 25 26 27 28 29 30 31 32 33 34 35 36 37 38 39 40 41 42 43 44 45 46 47 48 49 50
000
ASUS43 KGLD 280208
RWRGLD

GOODLAND FORECAST AREA HOURLY WEATHER ROUNDUP
NATIONAL WEATHER SERVICE GOODLAND KS
800 PM MDT THU AUG 27 2015

...OFFICIAL OBSERVATIONS...

CITY           SKY/WX    TMP DP  RH WIND       PRES   REMARKS
GOODLAND KS    MOCLDY    80  58  46 N13       29.97R
HILL CITY KS   CLOUDY    86  60  41 S20G26    29.83R
IMPERIAL NEB   MOCLDY    76  63  64 N8        29.95R
MCCOOK NEB     MOCLDY    81  59  47 NW10      29.86R
AKRON CO       CLOUDY    70  61  73 CALM      30.07R
BURLINGTON CO  CLOUDY    78  54  43 N10       30.03R
LIMON CO       CLOUDY    64  58  80 NW5       30.16R
$$

...UNOFFICIAL OBSERVATIONS...

CITY           SKY/WX    TMP DP  RH WIND       PRES   REMARKS
COLBY KS       CLEAR     84  63  48 NW8       29.93R
GOVE KS          N/A     86  32  14 MISG        N/A
LENORA KS        N/A     85  32  15 MISG        N/A
NORTON KS      CLEAR     77  57  50 W7        29.82R
SHARON SPRINGS   N/A     76  59  55 W8          N/A
TRENTON NEB      N/A     78  32  18 N7          N/A
KIT CARSON CO    N/A     71  61  70 MISG        N/A
YUMA CO          N/A     69  64  85 CALM        N/A
$$


USA.gov is the U.S. government's official web portal to all federal, state and local government web resources and services.